Tracking 19192 objects as of 22-Jun-2018
HD Live streaming from Space Station
objects crossing your sky now

FENGYUN 1C DEB

Track FENGYUN 1C DEB now!
10-day predictions


NORAD ID: 33698
Int'l Code: 1999-025DGK
Perigee: 627.1 km
Apogee: 844.3 km
Inclination: 99.6 °
Period: 99.4 minutes
Semi major axis: 7106 km
RCS: 0.0004 m2 (small)
Launch date: May 10, 1999
Source: People's Republic of China (PRC)
Launch site: Taiyaun Space Center, China (TSC)

Note: This is SATELLITE DEBRIS
aabbcc
Your satellite tracking list
Your tracking list is empty




NASA's NSSDC Master Catalog

Two Line Element Set (TLE):
1 33698U 99025DGK 18172.48779832 +.00000043 +00000-0 +25112-4 0  9993
2 33698 099.6062 066.4347 0152820 342.0050 017.5764 14.49107799560344
Source of the keplerian elements: AFSPC